Sterling, IL

4:37 PM CST on November 11, 2019 (GMT -0600)
Whiteside County-Bittorf

Weather History for KSQI - September, 2019

Change the Weather History Date:

Sunday, September 22, 2019

  Actual Average Record
Temperature  
Mean Temperature 69 °F -  
Max Temperature 72 °F 70 °F 93 °F (2017)
Min Temperature 64 °F 46 °F 32 °F (1999)
Cooling Degree Days 4    
Growing Degree Days 19 (Base 50)    
Moisture  
Dew Point 68 °F    
Average Humidity 97    
Maximum Humidity 100    
Minimum Humidity 91    
Precipitation  
Precipitation 0.00 in - - ()
Sea Level Pressure  
Sea Level Pressure 29.70 in    
Wind  
Wind Speed 4 mph ()    
Max Wind Speed 12 mph    
Max Gust Speed -    
Visibility 9.1 miles    
Events Rain    
Averages and records for this station are not official NWS values.
T = Trace of Precipitation, MM = Missing Value Source: Averaged Metar Reports

Daily Weather History Graph

Daily Weather History Graph

Search for Another Location

Airport or City:

Astronomy

Sep. 22, 2019 Rise Set
Actual Time 6:45 AM CDT 6:56 PM CDT
Civil Twilight 6:18 AM CDT 7:24 PM CDT
Nautical Twilight 5:45 AM CDT 7:56 PM CDT
Astronomical Twilight 5:12 AM CDT 8:29 PM CDT
Moon No Moon Rise 2:57 PM CDT (9/22)
Length of Visible Light 13h 05m
Length of Day
12h 10m
Last Quarter, 44% of the Moon is Illuminated
Sep 22
Last Quarter
Sep 28
New
Oct 5
First Quarter
Oct 13
Full
Oct 21
Last Quarter

Hourly Weather History & Observations

Time (CDT) Temp. Dew Point Humidity Pressure Visibility Wind Dir Wind Speed Gust Speed Precip Events Conditions
12:56 AM 72.0 °F 71.1 °F 97% 29.58 in 10.0 mi Calm Calm - N/A   Overcast
1:56 AM 72.0 °F 71.1 °F 97% 29.55 in 10.0 mi Variable 4.6 mph - N/A   Overcast
2:56 AM 72.0 °F 71.1 °F 97% 29.52 in 10.0 mi Variable 3.5 mph - N/A   Mostly Cloudy
3:56 AM 72.0 °F 70.0 °F 93% 29.51 in 10.0 mi Variable 3.5 mph - N/A   Mostly Cloudy
4:56 AM 72.0 °F 70.0 °F 93% 29.52 in 10.0 mi Variable 6.9 mph - N/A   Mostly Cloudy
5:18 AM 71.6 °F 69.8 °F 94% 29.92 in 8.0 mi Variable 3.5 mph - 0.00 in Rain Rain
5:41 AM - - N/A% - 6.0 mi North - - N/A Rain Heavy Rain
5:56 AM - - N/A% 29.92 in 6.0 mi North - - N/A Rain Rain
6:05 AM 69.8 °F 69.8 °F 100% 29.91 in 8.0 mi Variable 3.5 mph - N/A Rain Rain
6:45 AM 69.8 °F 69.8 °F 100% - 4.0 mi North - - N/A Rain Light Rain
6:56 AM 70.0 °F 69.1 °F 97% - 6.0 mi North - - N/A Rain Light Rain
7:05 AM 69.8 °F 69.8 °F 100% - 5.0 mi North - - N/A Rain Heavy Rain
7:56 AM 70.0 °F 69.1 °F 97% 29.49 in 10.0 mi Variable 4.6 mph - N/A Rain Light Rain
8:24 AM 69.8 °F 69.8 °F 100% 29.89 in 10.0 mi Variable 3.5 mph - N/A   Overcast
8:56 AM 71.1 °F 69.1 °F 93% 29.49 in 10.0 mi Variable 3.5 mph - N/A   Overcast
9:56 AM 72.0 °F 69.1 °F 91% 29.48 in 10.0 mi North - - N/A   Overcast
10:17 AM 71.6 °F 69.8 °F 94% 29.89 in 10.0 mi WSW 9.2 mph - N/A   Overcast
10:56 AM 70.0 °F 69.1 °F 97% 29.49 in 10.0 mi North - - N/A Rain Rain
11:09 AM 69.8 °F 69.8 °F 100% - 10.0 mi North - - N/A Rain Light Rain
11:21 AM 69.8 °F 69.8 °F 100% 29.89 in 9.0 mi North - - N/A Rain Light Rain
11:29 AM 69.8 °F 69.8 °F 100% 29.89 in 10.0 mi WSW 8.1 mph - N/A Rain Light Rain
11:56 AM 70.0 °F 69.1 °F 97% 29.49 in 10.0 mi WSW 8.1 mph - N/A Rain Light Rain
12:56 PM 69.1 °F 68.0 °F 96% - 10.0 mi North - - N/A Rain Light Rain
1:19 PM 69.8 °F 68.0 °F 94% 29.88 in 10.0 mi WSW 5.8 mph - N/A Rain Light Rain
1:24 PM 69.8 °F 69.8 °F 100% 29.88 in 10.0 mi Variable 4.6 mph - N/A Rain Light Rain
1:38 PM 69.8 °F 68.0 °F 94% 29.88 in 10.0 mi Calm Calm - N/A Rain Light Rain
1:56 PM 70.0 °F 68.0 °F 93% 29.48 in 10.0 mi SSW 5.8 mph - N/A Rain Light Rain
2:56 PM 70.0 °F 68.0 °F 93% 29.45 in 10.0 mi WSW 5.8 mph - N/A Rain Light Rain
3:56 PM 68.0 °F 68.0 °F 100% 29.42 in 6.0 mi Calm Calm - N/A Rain Light Rain
3:59 PM 68.0 °F 68.0 °F 100% 29.82 in 7.0 mi Calm Calm - N/A Rain Light Rain
4:29 PM 68.0 °F 68.0 °F 100% 29.77 in 9.0 mi SE 5.8 mph - N/A Rain Light Rain
4:56 PM 68.0 °F 68.0 °F 100% 29.43 in 10.0 mi West 6.9 mph - N/A   Mostly Cloudy
5:12 PM 68.0 °F 66.2 °F 94% 29.82 in 10.0 mi NW 5.8 mph - N/A   Overcast
5:21 PM 68.0 °F 66.2 °F 94% 29.82 in 10.0 mi NW 6.9 mph - N/A   Overcast
5:44 PM 68.0 °F 66.2 °F 94% 29.82 in 10.0 mi WNW 3.5 mph - N/A   Overcast
5:56 PM 68.0 °F 66.9 °F 96% 29.82 in 10.0 mi Calm Calm - N/A   Overcast
6:56 PM 68.0 °F 66.9 °F 96% 29.44 in 10.0 mi WNW 5.8 mph - N/A   Overcast
7:10 PM 68.0 °F 66.2 °F 94% 29.84 in 10.0 mi WNW 4.6 mph - N/A   Overcast
7:39 PM 66.2 °F 66.2 °F 100% 29.85 in 9.0 mi WNW 8.1 mph - N/A   Overcast
7:56 PM 66.9 °F 66.0 °F 97% 29.46 in 9.0 mi West 6.9 mph - N/A   Overcast
8:28 PM 66.2 °F 66.2 °F 100% 29.87 in 10.0 mi WSW 5.8 mph - N/A   Overcast
8:54 PM 66.2 °F 66.2 °F 100% 29.87 in 10.0 mi WSW 4.6 mph - N/A   Mostly Cloudy
8:56 PM 66.9 °F 66.9 °F 100% 29.48 in 10.0 mi WSW 5.8 mph - N/A   Overcast
9:23 PM 66.2 °F 66.2 °F 100% 29.88 in 10.0 mi WSW 4.6 mph - N/A   Overcast
9:44 PM 66.2 °F 66.2 °F 100% 29.88 in 10.0 mi WSW 5.8 mph - N/A   Overcast
9:56 PM 66.9 °F 66.0 °F 97% 29.48 in 10.0 mi WSW 4.6 mph - N/A   Overcast
10:17 PM 66.2 °F 66.2 °F 100% 29.89 in 10.0 mi WSW 5.8 mph - N/A   Overcast
10:27 PM 66.2 °F 66.2 °F 100% 29.88 in 10.0 mi WSW 5.8 mph - N/A   Mostly Cloudy
10:56 PM 66.0 °F 66.0 °F 100% 29.49 in 3.0 mi West 9.2 mph - N/A   Overcast
11:06 PM 66.2 °F 66.2 °F 100% 29.89 in 6.0 mi West 10.4 mph - N/A   Overcast
11:40 PM 66.2 °F 66.2 °F 100% 29.90 in 10.0 mi NW 11.5 mph - N/A   Overcast
11:56 PM 64.9 °F 63.0 °F 93% 29.51 in 10.0 mi NNW 9.2 mph - N/A   Overcast